When you browse on this site, cookies collect data to enhance your experience and personalize the content and advertising you see.
Visit our Privacy Policy to learn more. By continuing to use the site, you agree to this use of cookies and data.

Meteo orario Tykhonivs'ke

Oggi, 16 Luglio, Giovedi

Tempo Temperatura Precipitazioni Vento Pressione Umidità
00:00 +11°C° 0 mm 4 m/s 742 mm Hg 81%
01:00 +11°C° 0 mm 4 m/s 742 mm Hg 81%
02:00 +11°C° 0 mm 4 m/s 742 mm Hg 80%
03:00 +11°C° 0 mm 3 m/s 742 mm Hg 82%
04:00 +10°C° 0 mm 3 m/s 742 mm Hg 84%
05:00 +10°C° 0 mm 3 m/s 742 mm Hg 86%
06:00 +11°C° 0 mm 3 m/s 743 mm Hg 82%
07:00 +13°C° 0 mm 4 m/s 743 mm Hg 77%
08:00 +15°C° 0 mm 4 m/s 743 mm Hg 73%
09:00 +18°C° 0 mm 4 m/s 743 mm Hg 69%
10:00 +19°C° 0 mm 4 m/s 743 mm Hg 65%
11:00 +20°C° 0 mm 4 m/s 743 mm Hg 62%
12:00 +21°C° 0 mm 4 m/s 743 mm Hg 60%
13:00 +21°C° 0 mm 3 m/s 743 mm Hg 59%
14:00 +22°C° 0 mm 3 m/s 743 mm Hg 57%
15:00 +22°C° 0 mm 3 m/s 743 mm Hg 58%
16:00 +22°C° 0 mm 3 m/s 743 mm Hg 60%
17:00 +23°C° 0 mm 2 m/s 743 mm Hg 61%
18:00 +20°C° 0 mm 2 m/s 743 mm Hg 67%
19:00 +18°C° 0 mm 2 m/s 743 mm Hg 73%
20:00 +16°C° 0 mm 1 m/s 743 mm Hg 79%
21:00 +15°C° 0 mm 1 m/s 743 mm Hg 80%
22:00 +14°C° 0 mm 1 m/s 743 mm Hg 81%
23:00 +14°C° 0 mm 1 m/s 743 mm Hg 83%

Domani, 17 Luglio, Venerdi

Tempo Temperatura Precipitazioni Vento Pressione Umidità
00:00 +13°C° 0 mm 1 m/s 743 mm Hg 83%
01:00 +13°C° 0 mm 1 m/s 743 mm Hg 83%
02:00 +13°C° 0 mm 1 m/s 743 mm Hg 84%
03:00 +13°C° 0 mm 1 m/s 743 mm Hg 84%
04:00 +13°C° 0 mm 1 m/s 743 mm Hg 83%
05:00 +13°C° 0 mm 1 m/s 743 mm Hg 83%
06:00 +15°C° 0 mm 1 m/s 744 mm Hg 78%
07:00 +18°C° 0 mm 1 m/s 744 mm Hg 73%
08:00 +20°C° 0 mm 1 m/s 744 mm Hg 68%
09:00 +22°C° 0 mm 1 m/s 744 mm Hg 65%
10:00 +23°C° 0 mm 1 m/s 745 mm Hg 61%
11:00 +24°C° 0 mm 1 m/s 745 mm Hg 58%
12:00 +25°C° 0.3 mm 1 m/s 744 mm Hg 59%
13:00 +25°C° 0.3 mm 1 m/s 744 mm Hg 59%
14:00 +25°C° 0.3 mm 2 m/s 744 mm Hg 60%
15:00 +24°C° 0.8 mm 1 m/s 744 mm Hg 65%
16:00 +24°C° 0.8 mm 1 m/s 744 mm Hg 71%
17:00 +23°C° 0.8 mm 1 m/s 744 mm Hg 76%
18:00 +22°C° 0.1 mm 1 m/s 744 mm Hg 79%
19:00 +21°C° 0.1 mm 1 m/s 744 mm Hg 81%
20:00 +17°C° 0.1 mm 0 m/s 744 mm Hg 84%
21:00 +17°C° 0 mm 0 m/s 745 mm Hg 85%
22:00 +16°C° 0 mm 0 m/s 745 mm Hg 85%
23:00 +15°C° 0 mm 0 m/s 745 mm Hg 86%

Dopodomani, 18 Luglio, Sabato

Tempo Temperatura Precipitazioni Vento Pressione Umidità
00:00 +15°C° 0 mm 0 m/s 745 mm Hg 87%
01:00 +15°C° 0 mm 0 m/s 745 mm Hg 88%
02:00 +14°C° 0 mm 0 m/s 746 mm Hg 88%
03:00 +15°C° 0 mm 0 m/s 746 mm Hg 88%
04:00 +15°C° 0 mm 0 m/s 746 mm Hg 88%
05:00 +15°C° 0 mm 0 m/s 746 mm Hg 88%
06:00 +17°C° 0 mm 0 m/s 746 mm Hg 84%
07:00 +18°C° 0 mm 0 m/s 746 mm Hg 80%
08:00 +20°C° 0 mm 0 m/s 747 mm Hg 75%
09:00 +21°C° 0.6 mm 0 m/s 747 mm Hg 72%
10:00 +24°C° 0.6 mm 1 m/s 747 mm Hg 69%
11:00 +25°C° 0.6 mm 1 m/s 747 mm Hg 66%
12:00 +25°C° 1.3 mm 1 m/s 747 mm Hg 67%
13:00 +25°C° 1.3 mm 1 m/s 747 mm Hg 67%
14:00 +25°C° 1.3 mm 2 m/s 747 mm Hg 67%
15:00 +25°C° 0.7 mm 2 m/s 746 mm Hg 70%
16:00 +25°C° 0.7 mm 2 m/s 746 mm Hg 72%
17:00 +24°C° 0.7 mm 2 m/s 746 mm Hg 75%
18:00 +23°C° 0 mm 2 m/s 746 mm Hg 78%
19:00 +20°C° 0 mm 2 m/s 746 mm Hg 81%
20:00 +19°C° 0 mm 2 m/s 746 mm Hg 83%
21:00 +18°C° 0 mm 2 m/s 746 mm Hg 83%
22:00 +18°C° 0 mm 2 m/s 746 mm Hg 84%
23:00 +17°C° 0 mm 2 m/s 746 mm Hg 84%

19 Luglio, Domenica

Tempo Temperatura Precipitazioni Vento Pressione Umidità
00:00 +17°C° 0 mm 2 m/s 746 mm Hg 85%
01:00 +16°C° 0 mm 2 m/s 746 mm Hg 86%
02:00 +16°C° 0 mm 2 m/s 746 mm Hg 87%
03:00 +16°C° 0 mm 2 m/s 746 mm Hg 88%
04:00 +16°C° 0 mm 2 m/s 746 mm Hg 90%
05:00 +15°C° 0 mm 2 m/s 746 mm Hg 91%
06:00 +17°C° 0 mm 2 m/s 746 mm Hg 86%
07:00 +19°C° 0 mm 2 m/s 746 mm Hg 80%
08:00 +21°C° 0 mm 2 m/s 746 mm Hg 75%
09:00 +23°C° 0 mm 2 m/s 746 mm Hg 71%
10:00 +24°C° 0 mm 2 m/s 746 mm Hg 67%
11:00 +25°C° 0 mm 2 m/s 746 mm Hg 62%
12:00 +25°C° 0.1 mm 2 m/s 746 mm Hg 61%
13:00 +25°C° 0.1 mm 2 m/s 746 mm Hg 60%
14:00 +26°C° 0.1 mm 2 m/s 745 mm Hg 59%
15:00 +25°C° 0.2 mm 2 m/s 745 mm Hg 62%
16:00 +25°C° 0.2 mm 2 m/s 745 mm Hg 65%
17:00 +25°C° 0.2 mm 1 m/s 745 mm Hg 68%
18:00 +23°C° 0.1 mm 1 m/s 745 mm Hg 73%
19:00 +21°C° 0.1 mm 1 m/s 744 mm Hg 78%
20:00 +17°C° 0.1 mm 0 m/s 744 mm Hg 83%
21:00 +17°C° 0 mm 0 m/s 744 mm Hg 83%
22:00 +16°C° 0 mm 0 m/s 744 mm Hg 84%
23:00 +16°C° 0 mm 0 m/s 744 mm Hg 85%

20 Luglio, Lunedi

Tempo Temperatura Precipitazioni Vento Pressione Umidità
00:00 +16°C° 0 mm 1 m/s 744 mm Hg 85%
01:00 +16°C° 0 mm 1 m/s 744 mm Hg 86%
02:00 +16°C° 0 mm 1 m/s 744 mm Hg 86%
03:00 +16°C° 0 mm 1 m/s 744 mm Hg 86%
04:00 +16°C° 0 mm 1 m/s 743 mm Hg 86%
05:00 +16°C° 0 mm 1 m/s 743 mm Hg 86%
06:00 +18°C° 0 mm 1 m/s 743 mm Hg 82%
07:00 +20°C° 0 mm 1 m/s 743 mm Hg 77%
08:00 +22°C° 0 mm 1 m/s 743 mm Hg 73%
09:00 +23°C° 0 mm 1 m/s 743 mm Hg 69%
10:00 +24°C° 0 mm 1 m/s 743 mm Hg 65%
11:00 +25°C° 0 mm 1 m/s 743 mm Hg 61%
12:00 +25°C° 0 mm 1 m/s 742 mm Hg 59%
13:00 +26°C° 0 mm 1 m/s 742 mm Hg 58%
14:00 +26°C° 0 mm 1 m/s 742 mm Hg 56%
15:00 +26°C° 0.1 mm 1 m/s 742 mm Hg 58%
16:00 +26°C° 0.1 mm 1 m/s 741 mm Hg 60%
17:00 +24°C° 0.1 mm 0 m/s 741 mm Hg 61%
18:00 +24°C° 0 mm 1 m/s 741 mm Hg 65%
19:00 +22°C° 0 mm 1 m/s 741 mm Hg 69%
20:00 +21°C° 0 mm 1 m/s 740 mm Hg 74%
21:00 +20°C° 0 mm 1 m/s 740 mm Hg 75%
22:00 +19°C° 0 mm 1 m/s 740 mm Hg 76%
23:00 +19°C° 0 mm 1 m/s 740 mm Hg 77%

21 Luglio, Martedi

Tempo Temperatura Precipitazioni Vento Pressione Umidità
00:00 +18°C° 0 mm 1 m/s 740 mm Hg 78%
01:00 +18°C° 0 mm 1 m/s 739 mm Hg 79%
02:00 +15°C° 0 mm 0 m/s 739 mm Hg 80%
03:00 +18°C° 0 mm 1 m/s 739 mm Hg 80%
04:00 +18°C° 0 mm 1 m/s 739 mm Hg 81%
05:00 +18°C° 0 mm 1 m/s 739 mm Hg 81%
06:00 +19°C° 0 mm 1 m/s 739 mm Hg 77%
07:00 +21°C° 0 mm 1 m/s 739 mm Hg 73%
08:00 +22°C° 0 mm 1 m/s 739 mm Hg 69%
09:00 +23°C° 0 mm 2 m/s 738 mm Hg 66%
10:00 +25°C° 0 mm 2 m/s 738 mm Hg 62%
11:00 +26°C° 0 mm 3 m/s 738 mm Hg 59%
12:00 +26°C° 0 mm 3 m/s 738 mm Hg 58%
13:00 +26°C° 0 mm 3 m/s 738 mm Hg 58%
14:00 +27°C° 0 mm 3 m/s 738 mm Hg 57%
15:00 +26°C° 0.2 mm 3 m/s 737 mm Hg 61%
16:00 +26°C° 0.2 mm 3 m/s 737 mm Hg 65%
17:00 +25°C° 0.2 mm 3 m/s 737 mm Hg 69%
18:00 +24°C° 0.2 mm 3 m/s 737 mm Hg 74%
19:00 +21°C° 0.2 mm 3 m/s 737 mm Hg 79%
20:00 +19°C° 0.2 mm 2 m/s 737 mm Hg 85%
21:00 +19°C° 0 mm 2 m/s 737 mm Hg 86%
22:00 +18°C° 0 mm 2 m/s 737 mm Hg 88%
23:00 +18°C° 0 mm 2 m/s 738 mm Hg 90%
Mostrare altro